Hourly Weather Lukovo

Today, 17 May, Monday

Time Temperature Precipitation Wind Pressure Humidity
00:00 +14°C° 0 mm 1 mps 739 mmHg 97%
01:00 +14°C° 0 mm 1 mps 739 mmHg 98%
02:00 +11°C° 0 mm 1 mps 739 mmHg 100%
03:00 +11°C° 0 mm 0 mps 740 mmHg 98%
04:00 +12°C° 0 mm 1 mps 739 mmHg 99%
05:00 +12°C° 0 mm 1 mps 739 mmHg 97%
06:00 +12°C° 0 mm 1 mps 738 mmHg 97%
07:00 +13°C° 0 mm 1 mps 738 mmHg 97%
08:00 +14°C° 0 mm 1 mps 738 mmHg 95%
09:00 +15°C° 0 mm 1 mps 738 mmHg 94%
10:00 +15°C° 0 mm 2 mps 739 mmHg 94%
11:00 +16°C° 0 mm 2 mps 738 mmHg 92%
12:00 +18°C° 0 mm 1 mps 738 mmHg 89%
13:00 +18°C° 0 mm 2 mps 737 mmHg 86%
14:00 +20°C° 0 mm 1 mps 737 mmHg 80%
15:00 +20°C° 0 mm 1 mps 736 mmHg 77%
16:00 +20°C° 0 mm 1 mps 735 mmHg 76%
17:00 +21°C° 0 mm 1 mps 735 mmHg 74%
18:00 +21°C° 0 mm 1 mps 734 mmHg 72%
19:00 +20°C° 0 mm 1 mps 734 mmHg 82%
20:00 +17°C° 0 mm 0 mps 734 mmHg 81%
21:00 +19°C° 0 mm 1 mps 734 mmHg 80%
22:00 +19°C° 0 mm 1 mps 733 mmHg 82%
23:00 +18°C° 0.2 mm 1 mps 733 mmHg 85%

Tomorrow, 18 May, Tuesday

Time Temperature Precipitation Wind Pressure Humidity
00:00 +15°C° 4.4 mm 2 mps 733 mmHg 100%
01:00 +16°C° 0.4 mm 2 mps 732 mmHg 91%
02:00 +15°C° 0 mm 2 mps 732 mmHg 91%
03:00 +14°C° 0 mm 3 mps 732 mmHg 90%
04:00 +14°C° 0 mm 3 mps 731 mmHg 92%
05:00 +15°C° 0 mm 2 mps 731 mmHg 92%
06:00 +15°C° 0.2 mm 1 mps 731 mmHg 95%
07:00 +14°C° 1.4 mm 2 mps 731 mmHg 100%
08:00 +15°C° 1.6 mm 2 mps 731 mmHg 99%
09:00 +15°C° 0.2 mm 2 mps 732 mmHg 98%
10:00 +16°C° 0.1 mm 2 mps 732 mmHg 98%
11:00 +16°C° 0 mm 3 mps 732 mmHg 99%
12:00 +14°C° 0.2 mm 4 mps 733 mmHg 99%
13:00 +14°C° 0.2 mm 3 mps 733 mmHg 100%
14:00 +17°C° 0 mm 2 mps 733 mmHg 98%
15:00 +17°C° 0.6 mm 3 mps 734 mmHg 96%
16:00 +15°C° 2.5 mm 6 mps 734 mmHg 94%
17:00 +14°C° 4.3 mm 5 mps 736 mmHg 99%
18:00 +13°C° 0.7 mm 6 mps 736 mmHg 99%
19:00 +13°C° 0.1 mm 5 mps 737 mmHg 99%
20:00 +13°C° 0.1 mm 5 mps 737 mmHg 97%
21:00 +12°C° 0 mm 4 mps 738 mmHg 96%
22:00 +12°C° 0.2 mm 3 mps 738 mmHg 98%
23:00 +12°C° 0.3 mm 3 mps 739 mmHg 100%

Day after tomorrow, 19 May, Wednesday

Time Temperature Precipitation Wind Pressure Humidity
00:00 +12°C° 0.4 mm 3 mps 739 mmHg 100%
01:00 +12°C° 0.8 mm 2 mps 739 mmHg 100%
02:00 +13°C° 0.1 mm 2 mps 739 mmHg 100%
03:00 +12°C° 0 mm 2 mps 739 mmHg 100%
04:00 +12°C° 0 mm 2 mps 739 mmHg 100%
05:00 +12°C° 0 mm 1 mps 739 mmHg 100%
06:00 +12°C° 0 mm 1 mps 739 mmHg 100%
07:00 +13°C° 0 mm 2 mps 740 mmHg 99%
08:00 +13°C° 0 mm 2 mps 740 mmHg 99%
09:00 +14°C° 0 mm 2 mps 740 mmHg 98%
10:00 +14°C° 0 mm 3 mps 740 mmHg 98%
11:00 +16°C° 0 mm 3 mps 740 mmHg 95%
12:00 +17°C° 0.6 mm 4 mps 740 mmHg 93%
13:00 +17°C° 0.2 mm 4 mps 740 mmHg 87%
14:00 +18°C° 0.1 mm 4 mps 739 mmHg 87%
15:00 +18°C° 0.4 mm 3 mps 739 mmHg 87%
16:00 +18°C° 0.4 mm 2 mps 739 mmHg 84%
17:00 +18°C° 0 mm 3 mps 739 mmHg 88%
18:00 +18°C° 0 mm 3 mps 738 mmHg 91%
19:00 +18°C° 0 mm 1 mps 738 mmHg 93%
20:00 +18°C° 0 mm 1 mps 738 mmHg 96%
21:00 +16°C° 0.2 mm 1 mps 738 mmHg 96%
22:00 +16°C° 0 mm 1 mps 738 mmHg 92%
23:00 +14°C° 0 mm 4 mps 738 mmHg 89%

20 May, Thursday

Time Temperature Precipitation Wind Pressure Humidity
00:00 +14°C° 0 mm 5 mps 738 mmHg 87%
01:00 +13°C° 0 mm 5 mps 737 mmHg 87%
02:00 +13°C° 0 mm 6 mps 737 mmHg 88%
03:00 +11°C° 0 mm 7 mps 737 mmHg 89%
04:00 +11°C° 0 mm 7 mps 737 mmHg 90%
05:00 +13°C° 0 mm 5 mps 737 mmHg 87%
06:00 +13°C° 0 mm 5 mps 737 mmHg 88%
07:00 +13°C° 0 mm 4 mps 737 mmHg 88%
08:00 +14°C° 0 mm 3 mps 738 mmHg 90%
09:00 +14°C° 0 mm 3 mps 738 mmHg 90%
10:00 +15°C° 0 mm 6 mps 738 mmHg 89%
11:00 +15°C° 0 mm 6 mps 738 mmHg 89%
12:00 +16°C° 0 mm 6 mps 738 mmHg 87%
13:00 +16°C° 0 mm 6 mps 738 mmHg 84%
14:00 +17°C° 0 mm 5 mps 738 mmHg 81%
15:00 +16°C° 0 mm 5 mps 739 mmHg 81%
16:00 +17°C° 0 mm 4 mps 738 mmHg 80%
17:00 +16°C° 0 mm 5 mps 739 mmHg 79%
18:00 +16°C° 0 mm 5 mps 739 mmHg 79%
19:00 +15°C° 0 mm 4 mps 739 mmHg 82%
20:00 +14°C° 0 mm 3 mps 740 mmHg 85%
21:00 +13°C° 0 mm 3 mps 741 mmHg 87%
22:00 +13°C° 0 mm 2 mps 741 mmHg 89%
23:00 +13°C° 0 mm 2 mps 742 mmHg 91%

21 May, Friday

Time Temperature Precipitation Wind Pressure Humidity
00:00 +12°C° 0 mm 2 mps 742 mmHg 94%
01:00 +12°C° 0 mm 2 mps 742 mmHg 92%
02:00 +12°C° 0 mm 2 mps 743 mmHg 88%
03:00 +10°C° 0 mm 2 mps 743 mmHg 87%
04:00 +10°C° 0 mm 2 mps 743 mmHg 88%
05:00 +10°C° 0 mm 1 mps 744 mmHg 88%
06:00 +10°C° 0 mm 1 mps 744 mmHg 88%
07:00 +11°C° 0 mm 1 mps 745 mmHg 86%
08:00 +13°C° 0 mm 2 mps 745 mmHg 83%
09:00 +13°C° 0 mm 3 mps 746 mmHg 83%
10:00 +14°C° 0 mm 3 mps 746 mmHg 81%
11:00 +16°C° 0 mm 2 mps 746 mmHg 79%
12:00 +16°C° 0 mm 2 mps 747 mmHg 78%
13:00 +17°C° 0 mm 2 mps 746 mmHg 73%
14:00 +18°C° 0 mm 3 mps 746 mmHg 71%
15:00 +18°C° 0 mm 3 mps 746 mmHg 74%
16:00 +18°C° 0 mm 3 mps 746 mmHg 73%
17:00 +17°C° 0 mm 4 mps 746 mmHg 71%
18:00 +17°C° 0 mm 3 mps 746 mmHg 78%
19:00 +16°C° 0 mm 3 mps 746 mmHg 84%
20:00 +15°C° 0 mm 2 mps 746 mmHg 91%
21:00 +14°C° 0 mm 1 mps 746 mmHg 91%
22:00 +14°C° 0 mm 1 mps 746 mmHg 90%
23:00 +14°C° 0 mm 1 mps 746 mmHg 88%

22 May, Saturday

Time Temperature Precipitation Wind Pressure Humidity
00:00 +14°C° 0 mm 1 mps 746 mmHg 86%
01:00 +12°C° 0 mm 0 mps 746 mmHg 85%
02:00 +13°C° 0 mm 1 mps 746 mmHg 84%
03:00 +13°C° 0 mm 1 mps 746 mmHg 83%
04:00 +13°C° 0 mm 1 mps 746 mmHg 83%
05:00 +13°C° 0 mm 1 mps 746 mmHg 85%
06:00 +12°C° 0 mm 1 mps 746 mmHg 88%
07:00 +13°C° 0 mm 1 mps 747 mmHg 94%
08:00 +14°C° 0 mm 1 mps 747 mmHg 93%
09:00 +15°C° 0 mm 1 mps 747 mmHg 92%
10:00 +16°C° 0 mm 2 mps 747 mmHg 88%
11:00 +17°C° 0 mm 2 mps 747 mmHg 83%
12:00 +18°C° 0 mm 2 mps 747 mmHg 82%
13:00 +18°C° 0 mm 2 mps 747 mmHg 81%
14:00 +19°C° 0 mm 2 mps 747 mmHg 76%
15:00 +19°C° 0 mm 2 mps 746 mmHg 75%
16:00 +19°C° 0 mm 2 mps 746 mmHg 75%
17:00 +19°C° 0 mm 2 mps 745 mmHg 73%
18:00 +20°C° 0 mm 1 mps 745 mmHg 69%
19:00 +17°C° 0 mm 0 mps 744 mmHg 77%
20:00 +17°C° 0 mm 0 mps 744 mmHg 76%
21:00 +18°C° 0 mm 1 mps 745 mmHg 72%
22:00 +18°C° 0 mm 1 mps 744 mmHg 70%
23:00 +18°C° 0 mm 1 mps 744 mmHg 73%
Show more

We Need Your Consent

Meteoprog and our Service Providers may store and access personal data such as cookies, device identifiers or other similar technologies on your device and process such data to personalise content and ads, as well as provide social media features and to analyse the traffic.

  • Store and/or access information on your device

    Cookies, device identifiers or other information can be stored or accessed on your device for the purposes indicated above.

  • Personalised ads and content, ad and content measurement, audience insights, and products development

    Ads and content can be personalised based on a profile. More data can be added to better personalise ads and content. Ad and content performance can be measured. Insights about the audience who saw the ads and content can be derived. Such data can be used to develop or improve user’s experience, systems and software.

By clicking ‘I Agree’ you will allow the use of indicated cookies, device identifiers, web beacons or other similar technologies. Your settings can be changed in the browser on your device.

For certain purposes, legitimate interests may be relied on, rather than consent. You can read more about this in our Privacy and Cookie Policy.